FW6138 Weather Reports


Display with metric or nautical units.
time (UTC)temp
F
wind
direction
speed
MPH
gust
MPH
rain 1hr
in
rain 24hr
in
rain mn
in
humidity
%
barometer
mb
20260508030030 63 234 1.0 8.0 0.00 0.00 0.00 32 1017.0
20260508024530 65 291 4.0 10.0 0.00 0.00 0.00 28 1016.9
20260508023028 66 302 5.0 12.0 0.00 0.00 0.00 27 1016.7
20260508021637 67 307 7.0 18.0 0.00 0.00 0.00 26 1016.6
20260508020029 68 305 7.0 15.0 0.00 0.00 0.00 26 1016.6
20260508014530 69 308 8.0 17.0 0.00 0.00 0.00 25 1016.6
20260508013037 70 304 8.0 20.0 0.00 0.00 0.00 25 1016.6
20260508011530 70 297 8.0 18.0 0.00 0.00 0.00 24 1016.6
20260508010031 70 304 8.0 18.0 0.00 0.00 0.00 24 1016.7
20260508004529 70 301 8.0 15.0 0.00 0.00 0.00 23 1016.6
20260508001533 71 303 9.0 21.0 0.00 0.00 0.00 22 1016.5
20260508000032 71 302 9.0 19.0 0.00 0.00 0.00 23 1016.5
20260507234529 71 305 9.0 18.0 0.00 0.00 0.00 24 1016.6
20260507233032 70 301 9.0 21.0 0.00 0.00 0.00 26 1016.6
20260507231537 70 298 8.0 21.0 0.00 0.00 0.00 27 1016.8
20260507230108 70 299 8.0 21.0 0.00 0.00 0.00 29 1016.9
20260507223155 71 303 9.0 19.0 0.00 0.00 0.00 30 1017.1
20260507221530 71 298 9.0 17.0 0.00 0.00 0.00 31 1017.3
20260507220039 71 302 7.0 15.0 0.00 0.00 0.00 33 1017.4
20260507214535 70 306 8.0 19.0 0.00 0.00 0.00 36 1017.5
20260507211541 70 305 8.0 20.0 0.00 0.00 0.00 41 1017.7
20260507210110 70 293 5.0 17.0 0.00 0.00 0.00 42 1017.9
20260507204534 69 304 5.0 13.0 0.00 0.00 0.00 44 1018.0
20260507203038 69 303 6.0 14.0 0.00 0.00 0.00 45 1018.2
20260507201531 68 307 6.0 12.0 0.00 0.00 0.00 46 1018.3
20260507200031 67 300 6.0 12.0 0.00 0.00 0.00 47 1018.5
20260507194607 66 306 8.0 17.0 0.00 0.00 0.00 48 1018.6
20260507193031 65 295 6.0 16.0 0.00 0.00 0.00 50 1018.8
20260507190105 64 305 8.0 16.0 0.00 0.00 0.00 52 1019.2
20260507184533 64 314 9.0 18.0 0.00 0.00 0.00 53 1019.4
20260507183040 63 322 8.0 16.0 0.00 0.00 0.00 54 1019.5
20260507181538 63 324 7.0 14.0 0.00 0.00 0.00 55 1019.7
20260507180110 0 0 0.0 0.0 0.00 0.00 0.00 100
20260507174537 62 317 6.0 14.0 0.00 0.00 0.00 56 1019.9
20260507173028 61 309 4.0 12.0 0.00 0.00 0.00 60 1020.2
20260507171534 60 314 5.0 14.0 0.00 0.00 0.00 62 1020.4
20260507170037 59 307 5.0 14.0 0.00 0.00 0.00 64 1020.4
20260507164537 57 304 7.0 16.0 0.00 0.00 0.00 66 1020.4
20260507163030 57 307 7.0 15.0 0.00 0.00 0.00 67 1020.5
20260507160038 56 302 7.0 17.0 0.00 0.00 0.00 70 1020.7
20260507154536 56 310 8.0 14.0 0.00 0.00 0.00 70 1020.8
20260507153031 55 312 7.0 17.0 0.00 0.00 0.00 71 1020.9
20260507150033 54 307 6.0 12.0 0.00 0.00 0.00 75 1021.0
20260507144538 53 300 6.0 13.0 0.00 0.00 0.00 77 1021.1
20260507143030 52 313 6.0 13.0 0.00 0.00 0.00 78 1021.1
20260507141531 52 336 5.0 12.0 0.00 0.00 0.00 79 1021.0
20260507140107 52 317 4.0 11.0 0.00 0.00 0.00 79 1020.8
20260507133029 48 319 3.0 10.0 0.00 0.00 0.00 86 1020.5
20260507131530 48 191 1.0 4.0 0.00 0.00 0.00 86 1020.5
20260507130031 48 107 0.0 4.0 0.00 0.00 0.00 83 1020.4
20260507124531 50 112 0.0 2.0 0.00 0.00 0.00 81 1020.3
20260507123029 52 112 1.0 4.0 0.00 0.00 0.00 79 1020.4
20260507121607 53 228 3.0 11.0 0.00 0.00 0.00 78 1020.3
20260507120037 53 282 4.0 12.0 0.00 0.00 0.00 78 1020.2
20260507114534 53 288 7.0 19.0 0.00 0.00 0.00 78 1020.1
20260507113032 53 293 6.0 14.0 0.00 0.00 0.00 79 1020.1
20260507111612 53 295 7.0 15.0 0.00 0.00 0.00 79 1019.9
20260507110153 53 296 4.0 15.0 0.00 0.00 0.00 79 1019.9
20260507104530 54 271 3.0 9.0 0.00 0.00 0.00 79 1019.9
20260507103031 54 279 5.0 15.0 0.00 0.00 0.00 79 1020.0
20260507101531 54 285 5.0 12.0 0.00 0.00 0.00 78 1020.0
20260507100051 55 289 7.0 15.0 0.00 0.00 0.00 78 1019.9
20260507094530 55 290 7.0 19.0 0.00 0.00 0.00 78 1019.9
20260507093038 55 296 7.0 16.0 0.00 0.00 0.00 78 1020.0
20260507091529 55 289 7.0 17.0 0.00 0.00 0.00 77 1020.1
20260507090032 55 262 3.0 11.0 0.00 0.00 0.00 76 1020.3
20260507084530 56 258 3.0 13.0 0.00 0.00 0.00 76 1020.3
20260507083039 56 266 4.0 9.0 0.00 0.00 0.00 75 1020.1
20260507081531 57 275 4.0 8.0 0.00 0.00 0.00 75 1020.1
20260507080030 57 263 4.0 8.0 0.00 0.00 0.00 75 1020.1
20260507074529 57 254 3.0 10.0 0.00 0.00 0.00 75 1020.2
20260507071538 58 281 4.0 10.0 0.00 0.00 0.00 75 1020.3
20260507070029 58 288 6.0 16.0 0.00 0.00 0.00 76 1020.4
20260507064532 58 277 4.0 11.0 0.00 0.00 0.00 76 1020.5
20260507063107 58 268 3.0 10.0 0.00 0.00 0.00 76 1020.4
20260507060106 59 256 2.0 9.0 0.00 0.00 0.00 75 1020.5
20260507053036 60 293 7.0 14.0 0.00 0.00 0.00 75 1020.7
20260507050034 60 291 6.0 18.0 0.00 0.00 0.00 76 1020.7
20260507044529 59 284 4.0 10.0 0.00 0.00 0.00 76 1020.7
20260507043029 57 293 4.0 12.0 0.00 0.00 0.00 78 1020.6
20260507041528 56 331 0.0 4.0 0.00 0.00 0.00 74 1020.5
20260507040105 57 298 1.0 3.0 0.00 0.00 0.00 72 1020.3
20260507034535 57 260 1.0 6.0 0.00 0.00 0.00 71 1020.1
20260507033029 60 207 0.0 0.0 0.00 0.00 0.00 65 1019.9
20260507031605 63 239 0.0 2.0 0.00 0.00 0.00 58 1019.7